THORAD AGENA D DEB, 4720

Orbit data source: Space-Track

THORAD AGENA D DEB, 4720 is space debris in SSO originally from a launch on Wed, 08 Apr 1970 UTC launched from the Air Force Western Test Range (AFWTR). Debris objects in space refer to the collection of defunct objects orbiting the Earth. Examples of debris include non-operational satellites, rocket bodies, and fragments generated from explosions, collisions, or faulty payload assembly.

Loading next visibility...
Identifier
4720, 1970-025CE
Orbit
SSO
Country
Flag of USUS
Related business
Manufacturer
Unknown
Mission
Spacecraft
Bus & Motor
Unknown
Mass
Unknown
Launch date (UTC)
1970-04-08 (56 years ago)
Launch vehicle
Unknown
Launch site
Air Force Western Test Range (AFWTR)
Object type
Payload
Rocket body
Debris
Shape & HBR
Unknown shape, 0.1 m
Radar Cross Section
Small (<0.1 m²)

Expand to show TLE details & history
Last TLE update: 2 days ago

TLE from 2 days ago
0 THORAD AGENA D DEB
1 04720U 70025CE  25298.74555208  .00001500  00000-0  94555-3 0  9996
2 04720 100.0227 229.6118 0083294 217.2963 142.2399 14.04405697817525
Epoch: 2025-10-25T17:53Z
TLE epoch observation values (Epoch: 2025-10-25T17:53:35.699Z)
Latitude
-0.00002°
Longitude
-73.15863°
Altitude
929.409 km
Speed
7.363 km/s
True Right ascension
15h 18m 26s
True Declination
0° 00' 00"
Sunlit
Object was in daylight at epoch
Visualization orbit readout
Latitude
Unknown
Longitude
Unknown
Altitude
Unknown
Speed
Unknown
Apparent Right ascension
Unknown
Apparent Declination
Unknown
Sunlit
N/A
Visualization observer readout
Local Sidereal Time
06:01:55
Azimuth
Unknown
Elevation
Unknown
Doppler factor
Unknown
Orbital elements
Apogee altitude
936.246 km
Perigee altitude
815.404 km
Semi-major axis
7,253.962 km
Eccentricity
0.00833
Inclination
100.0227°
RAAN
229.6118°
Arg. of periapsis
217.2963°
True anomaly
142.8196°
Mean anomaly
142.2399°
Eccentric anomaly
142.53023°
Mean motion
3.51302 °/min
Orbital period
102.48 mins
BSTAR
0.00094555
Loading maneuver chart data...
Computing Atmospheric mass density...

Documentation

Showing up to 5 results
|